This is the latest recevied weather packets stored in our database for station/object VK5FR. If no packets are shown the sender has not sent any weather packets the latest 10 day(s).
| Time | Temp. | Humidity | Pressure | Rain* | Wind** | Luminosity | Snow |
|---|---|---|---|---|---|---|---|
| 1777522862 | 25.56° C | 35% | 1017.9 hPa | 0 mm | - | - | - |
| 1777522559 | 25.56° C | 34% | 1017.7 hPa | 0 mm | - | - | - |
| 1777522256 | 25.56° C | 32% | 1018 hPa | 0 mm | - | - | - |
| 1777521953 | 25.56° C | 36% | 1018.2 hPa | 0 mm | - | - | - |
| 1777521650 | 25° C | 35% | 1018.1 hPa | 0 mm | - | - | - |
| 1777521347 | 25.56° C | 34% | 1018.3 hPa | 0 mm | - | - | - |
| 1777521044 | 25.56° C | 33% | 1018.4 hPa | 0 mm | - | - | - |
| 1777520741 | 25.56° C | 31% | 1018.3 hPa | 0 mm | - | - | - |
| 1777520438 | 25.56° C | 30% | 1018.4 hPa | 0 mm | - | - | - |
| 1777520135 | 25.56° C | 31% | 1018.3 hPa | 0 mm | - | - | - |
| 1777519832 | 25.56° C | 33% | 1018.7 hPa | 0 mm | - | - | - |
| 1777519530 | 25.56° C | 32% | 1018.5 hPa | 0 mm | - | - | - |
| 1777519226 | 25.56° C | 30% | 1018.8 hPa | 0 mm | - | - | - |
| 1777518922 | 25.56° C | 29% | 1018.7 hPa | 0 mm | - | - | - |
| 1777518618 | 25.56° C | 30% | 1018.8 hPa | 0 mm | - | - | - |
| 1777518315 | 25.56° C | 32% | 1018.9 hPa | 0 mm | - | - | - |
| 1777518010 | 26.11° C | 31% | 1019.1 hPa | 0 mm | - | - | - |
| 1777517707 | 25.56° C | 32% | 1019 hPa | 0 mm | - | - | - |
| 1777517403 | 25.56° C | 32% | 1019.1 hPa | 0 mm | - | - | - |
| 1777517097 | 25.56° C | 33% | 1019.1 hPa | 0 mm | - | - | - |
| 1777516794 | 25.56° C | 34% | 1019.3 hPa | 0 mm | - | - | - |
| 1777516490 | 25.56° C | 34% | 1019.4 hPa | 0 mm | - | - | - |
| 1777516185 | 25° C | 40% | 1019.4 hPa | 0 mm | - | - | - |
| 1777515884 | 25° C | 42% | 1019.4 hPa | 0 mm | - | - | - |
| 1777515579 | 25° C | 42% | 1019.6 hPa | 0 mm | - | - | - |
* Rain latest hour (hover to see other rain measurements)
** Current wind speed in m/s (hover to see current wind gust speed)